sat.trackr.live / text

‹ back to catalog

ZY-1 02D

NORAD 44528 · 2019-059A

PAYLOAD ACTIVE UNKNOWN

§ Identity

Operator
Country
PRC
Launch date
2019-09-12
Launch site
TAISC
Launch vehicle
Mass (kg)
RCS (m²)

External: N2YO · Heavens-Above · Gunter

§ Orbital elements

Epoch: 2026-09-09T05:04:33.555936Z

Period
100.33 min
Inclination
98.6657°
Eccentricity
0.0005224
Mean motion
14.35280365 rev/d
Perigee alt
770.4 km
Apogee alt
777.9 km
Semi-major
7,152.3 km
B*
3.0169e-5
RAAN
314.0148°
Arg perigee
117.1952°
Mean anomaly
242.9766°
Rev number
36,639

§ Raw data

ZY-1 02D1 44528U 19059A   26252.21149949  .00000041  00000+0  30169-4 0  99902 44528  98.6657 314.0148 0005224 117.1952 242.9766 14.35280365366396

JSON: /api/v1/satellites/44528 · /tle

For live sub-satellite position, see the globe view (requires WebGL).

§ Visibility from observer

Set your observer location to see the next 7 days of passes ≥ 10°. The values pass through the URL so the page stays shareable.

No JS? Fill the form by hand. The geolocation button needs JavaScript.

§ Radio — SatNOGS DB

ModeDescriptionDownlinkUplink
FM S-band telemetry 2.239 GHz

1 transmitter · refreshed weekly from db.satnogs.org